When you browse on this site, cookies collect data to enhance your experience and personalize the content and advertising you see.
Visit our Privacy Policy to learn more. By continuing to use the site, you agree to this use of cookies and data.
  • In Austria
  • List of Countries
  • For 7 days
  • Water Temperature
  • Weather Map
  • News
  • Weather Widgets
  • user-avatar
    Login

    Hourly Weather Kannyn

    Today, 6 April, Monday

    Time Temperature Precipitation Wind Pressure Humidity
    00:00 +4°C° 0 mm 3 mps 756 mmHg 45%
    01:00 +4°C° 0 mm 2 mps 756 mmHg 46%
    02:00 +4°C° 0 mm 2 mps 756 mmHg 47%
    03:00 +4°C° 0 mm 2 mps 756 mmHg 48%
    04:00 +4°C° 0 mm 2 mps 756 mmHg 49%
    05:00 +4°C° 0 mm 2 mps 756 mmHg 50%
    06:00 +4°C° 0 mm 2 mps 756 mmHg 51%
    07:00 +6°C° 0 mm 2 mps 756 mmHg 44%
    08:00 +9°C° 0 mm 1 mps 755 mmHg 37%
    09:00 +13°C° 0 mm 1 mps 756 mmHg 28%
    10:00 +14°C° 0 mm 1 mps 756 mmHg 27%
    11:00 +15°C° 0 mm 1 mps 755 mmHg 25%
    12:00 +17°C° 0 mm 2 mps 755 mmHg 24%
    13:00 +17°C° 0 mm 2 mps 754 mmHg 25%
    14:00 +17°C° 0 mm 2 mps 754 mmHg 27%
    15:00 +17°C° 0 mm 3 mps 753 mmHg 28%
    16:00 +16°C° 0 mm 3 mps 753 mmHg 30%
    17:00 +14°C° 0 mm 3 mps 753 mmHg 33%
    18:00 +13°C° 0 mm 3 mps 753 mmHg 36%
    19:00 +11°C° 0 mm 3 mps 753 mmHg 39%
    20:00 +10°C° 0 mm 3 mps 753 mmHg 43%
    21:00 +9°C° 0 mm 3 mps 753 mmHg 47%
    22:00 +8°C° 0 mm 3 mps 753 mmHg 48%
    23:00 +8°C° 0 mm 3 mps 753 mmHg 50%

    Tomorrow, 7 April, Tuesday

    Time Temperature Precipitation Wind Pressure Humidity
    00:00 +8°C° 0 mm 3 mps 753 mmHg 52%
    01:00 +7°C° 0 mm 3 mps 752 mmHg 53%
    02:00 +7°C° 0 mm 3 mps 752 mmHg 53%
    03:00 +5°C° 0 mm 3 mps 752 mmHg 54%
    04:00 +5°C° 0 mm 3 mps 752 mmHg 54%
    05:00 +5°C° 0 mm 3 mps 751 mmHg 55%
    06:00 +4°C° 0 mm 3 mps 751 mmHg 55%
    07:00 +8°C° 0 mm 3 mps 751 mmHg 50%
    08:00 +10°C° 0 mm 3 mps 751 mmHg 45%
    09:00 +12°C° 0 mm 3 mps 751 mmHg 40%
    10:00 +14°C° 0 mm 3 mps 750 mmHg 40%
    11:00 +16°C° 0 mm 3 mps 750 mmHg 40%
    12:00 +18°C° 0 mm 3 mps 750 mmHg 41%
    13:00 +18°C° 0 mm 3 mps 750 mmHg 40%
    14:00 +18°C° 0 mm 4 mps 750 mmHg 38%
    15:00 +19°C° 0 mm 4 mps 749 mmHg 37%
    16:00 +17°C° 0 mm 4 mps 749 mmHg 44%
    17:00 +15°C° 0 mm 4 mps 749 mmHg 50%
    18:00 +13°C° 0 mm 4 mps 749 mmHg 56%
    19:00 +12°C° 0 mm 3 mps 749 mmHg 64%
    20:00 +10°C° 0 mm 3 mps 750 mmHg 73%
    21:00 +9°C° 0 mm 3 mps 750 mmHg 81%
    22:00 +8°C° 0 mm 2 mps 750 mmHg 75%
    23:00 +7°C° 0 mm 2 mps 750 mmHg 70%

    Day after tomorrow, 8 April, Wednesday

    Time Temperature Precipitation Wind Pressure Humidity
    00:00 +8°C° 0 mm 1 mps 750 mmHg 65%
    01:00 +5°C° 0.1 mm 3 mps 751 mmHg 62%
    02:00 +5°C° 0.1 mm 4 mps 751 mmHg 60%
    03:00 +3°C° 0.1 mm 5 mps 751 mmHg 58%
    04:00 +3°C° 0 mm 5 mps 751 mmHg 57%
    05:00 +3°C° 0 mm 4 mps 751 mmHg 57%
    06:00 +3°C° 0 mm 4 mps 752 mmHg 56%
    07:00 +3°C° 0 mm 5 mps 752 mmHg 46%
    08:00 +5°C° 0 mm 6 mps 752 mmHg 37%
    09:00 +6°C° 0 mm 7 mps 752 mmHg 27%
    10:00 +8°C° 0 mm 7 mps 752 mmHg 26%
    11:00 +9°C° 0 mm 7 mps 752 mmHg 25%
    12:00 +10°C° 0 mm 6 mps 752 mmHg 24%
    13:00 +10°C° 0 mm 6 mps 752 mmHg 24%
    14:00 +12°C° 0 mm 5 mps 752 mmHg 25%
    15:00 +12°C° 0 mm 4 mps 752 mmHg 26%
    16:00 +12°C° 0 mm 3 mps 752 mmHg 28%
    17:00 +12°C° 0 mm 2 mps 752 mmHg 30%
    18:00 +11°C° 0 mm 1 mps 752 mmHg 32%
    19:00 +9°C° 0 mm 2 mps 753 mmHg 36%
    20:00 +8°C° 0 mm 3 mps 753 mmHg 39%
    21:00 +6°C° 0 mm 4 mps 754 mmHg 43%
    22:00 +5°C° 0 mm 4 mps 754 mmHg 44%
    23:00 +5°C° 0 mm 5 mps 754 mmHg 46%

    9 April, Thursday

    Time Temperature Precipitation Wind Pressure Humidity
    00:00 +3°C° 0 mm 5 mps 754 mmHg 47%
    01:00 +3°C° 0 mm 5 mps 754 mmHg 49%
    02:00 +2°C° 0 mm 5 mps 754 mmHg 52%
    03:00 +2°C° 0 mm 5 mps 754 mmHg 54%
    04:00 +2°C° 0 mm 5 mps 754 mmHg 55%
    05:00 +2°C° 0 mm 5 mps 754 mmHg 57%
    06:00 +2°C° 0 mm 5 mps 754 mmHg 58%
    07:00 +3°C° 0 mm 5 mps 754 mmHg 52%
    08:00 +6°C° 0 mm 5 mps 754 mmHg 46%
    09:00 +8°C° 0 mm 5 mps 755 mmHg 40%
    10:00 +9°C° 0 mm 5 mps 755 mmHg 39%
    11:00 +10°C° 0 mm 5 mps 755 mmHg 37%
    12:00 +12°C° 0 mm 5 mps 755 mmHg 35%
    13:00 +12°C° 0 mm 5 mps 755 mmHg 39%
    14:00 +12°C° 0 mm 4 mps 755 mmHg 43%
    15:00 +11°C° 0 mm 4 mps 754 mmHg 47%
    16:00 +10°C° 0.5 mm 4 mps 755 mmHg 61%
    17:00 +8°C° 0.5 mm 3 mps 755 mmHg 74%
    18:00 +7°C° 0.5 mm 2 mps 756 mmHg 88%
    19:00 +6°C° 0.5 mm 2 mps 756 mmHg 89%
    20:00 +7°C° 0.5 mm 1 mps 757 mmHg 90%
    21:00 +7°C° 0.5 mm 1 mps 758 mmHg 92%
    22:00 +7°C° 0 mm 1 mps 758 mmHg 91%
    23:00 +7°C° 0 mm 1 mps 758 mmHg 91%

    10 April, Friday

    Time Temperature Precipitation Wind Pressure Humidity
    00:00 +6°C° 0 mm 1 mps 759 mmHg 90%
    01:00 +6°C° 0 mm 1 mps 759 mmHg 89%
    02:00 +5°C° 0 mm 1 mps 759 mmHg 88%
    03:00 +5°C° 0 mm 1 mps 759 mmHg 87%
    04:00 +5°C° 0 mm 1 mps 759 mmHg 86%
    05:00 +4°C° 0 mm 1 mps 759 mmHg 85%
    06:00 +4°C° 0 mm 1 mps 759 mmHg 84%
    07:00 +7°C° 0 mm 1 mps 759 mmHg 72%
    08:00 +10°C° 0 mm 1 mps 759 mmHg 61%
    09:00 +11°C° 0 mm 0 mps 759 mmHg 50%
    10:00 +13°C° 0 mm 1 mps 759 mmHg 47%
    11:00 +14°C° 0 mm 2 mps 759 mmHg 44%
    12:00 +15°C° 0 mm 2 mps 758 mmHg 41%
    13:00 +14°C° 0 mm 3 mps 758 mmHg 42%
    14:00 +14°C° 0 mm 3 mps 757 mmHg 42%
    15:00 +14°C° 0 mm 4 mps 757 mmHg 42%
    16:00 +14°C° 0 mm 4 mps 756 mmHg 45%
    17:00 +13°C° 0 mm 4 mps 756 mmHg 47%
    18:00 +12°C° 0 mm 5 mps 756 mmHg 50%
    19:00 +10°C° 0 mm 5 mps 757 mmHg 53%
    20:00 +10°C° 0 mm 4 mps 757 mmHg 56%
    21:00 +8°C° 0 mm 4 mps 757 mmHg 59%
    22:00 +7°C° 0 mm 5 mps 757 mmHg 60%
    23:00 +7°C° 0 mm 5 mps 757 mmHg 60%

    11 April, Saturday

    Time Temperature Precipitation Wind Pressure Humidity
    00:00 +7°C° 0 mm 5 mps 757 mmHg 60%
    01:00 +6°C° 0 mm 5 mps 756 mmHg 61%
    02:00 +6°C° 0 mm 4 mps 756 mmHg 63%
    03:00 +5°C° 0 mm 3 mps 755 mmHg 64%
    04:00 +5°C° 0 mm 3 mps 755 mmHg 64%
    05:00 +5°C° 0 mm 3 mps 755 mmHg 64%
    06:00 +4°C° 0 mm 3 mps 755 mmHg 64%
    07:00 +7°C° 0 mm 3 mps 755 mmHg 57%
    08:00 +9°C° 0 mm 3 mps 755 mmHg 49%
    09:00 +12°C° 0 mm 2 mps 755 mmHg 41%
    10:00 +13°C° 0 mm 2 mps 754 mmHg 37%
    11:00 +15°C° 0 mm 2 mps 754 mmHg 33%
    12:00 +16°C° 0 mm 2 mps 753 mmHg 29%
    13:00 +16°C° 0 mm 3 mps 753 mmHg 29%
    14:00 +16°C° 0 mm 3 mps 752 mmHg 30%
    15:00 +17°C° 0 mm 3 mps 752 mmHg 30%
    16:00 +16°C° 0 mm 3 mps 752 mmHg 33%
    17:00 +14°C° 0 mm 3 mps 751 mmHg 36%
    18:00 +13°C° 0 mm 3 mps 751 mmHg 39%
    19:00 +12°C° 0 mm 3 mps 752 mmHg 45%
    20:00 +10°C° 0 mm 3 mps 752 mmHg 51%
    21:00 +9°C° 0 mm 2 mps 753 mmHg 57%
    22:00 +8°C° 0.4 mm 3 mps 753 mmHg 61%
    23:00 +8°C° 0.4 mm 3 mps 753 mmHg 64%
    Show more